{"data":{"norad_id":41919,"epoch":"2026-09-20T04:24:27.354816Z","epoch_age_seconds":42803,"freshness":"FRESH","line1":"1 41919U 17003C   26263.18364994  .00000165  00000+0  51841-4 0  9992","line2":"2 41919  86.3949  48.7674 0002155  91.8621 268.2822 14.34215286506817","mean_motion":14.34215286,"eccentricity":0.0002155,"inclination_deg":86.3949,"raan_deg":48.7674,"arg_perigee_deg":91.8621,"mean_anomaly_deg":268.2822,"bstar":5.1841e-5,"rev_number":50681,"period_min":100.40333651834,"perigee_km":776.13327263103,"apogee_km":779.21742775396,"semimajor_km":7155.8123501925,"source":"CELESTRAK","updated_at":"2026-09-20T09:00:36.320063Z"}}